Wind_Speed
11 11 11 12 12 12 13 13 13 12 11 10 9 9 9 11 11 12 11 11 11 11 10 9 9 9 8 8 7 7 6 5 4 4 3 2 2 1 0 1 2 2 2 3 3 3 3 3 3
12 12 12 12 12 13 14 13 12 11 10 10 10 10 10 11 12 13 12 11 12 12 10 9 9 9 8 8 8 7 6 5 4 4 3 3 2 2 1 2 2 3 3 3 2 2 2 2 2
11 12 12 12 12 13 15 14 13 12 11 11 10 9 9 11 12 13 12 12 12 12 11 10 9 9 8 8 8 7 6 6 5 5 4 4 3 3 3 3 3 4 4 3 3 3 2 2 1
12 12 12 13 13 14 15 15 15 14 13 11 10 9 9 10 11 12 12 12 12 11 11 9 9 9 9 8 8 7 6 6 5 5 5 4 4 5 5 5 5 5 5 5 4 4 3 2 2
12 12 12 13 14 15 15 15 15 15 13 12 11 10 11 11 11 12 12 13 12 12 11 10 10 9 9 9 8 8 7 6 6 6 6 6 6 6 6 6 6 6 6 6 6 5 5 4 3
12 12 11 13 15 16 16 16 16 16 14 12 11 10 11 12 13 13 13 14 14 14 12 11 10 10 10 9 9 8 7 7 7 7 7 7 7 7 7 7 7 7 8 7 7 7 6 5 5
11 11 11 12 15 16 15 15 15 14 14 13 11 11 10 11 13 14 14 15 15 14 13 12 11 11 10 10 9 8 8 8 8 8 8 8 8 8 9 8 8 8 8 8 8 8 8 7 6
11 11 11 12 13 14 14 14 14 13 13 12 11 12 12 12 13 15 15 16 16 15 14 14 13 12 11 10 9 9 8 8 8 8 9 9 9 9 9 9 9 9 9 9 9 8 8 8 7
11 11 10 11 12 13 13 13 13 12 12 12 11 13 15 15 14 15 16 18 18 17 16 15 14 13 12 11 10 10 9 9 9 9 9 10 10 10 10 10 10 9 9 9 8 8 7 8 8
12 11 11 12 13 13 13 13 13 12 12 11 11 13 15 15 16 17 18 20 20 19 18 17 16 14 13 12 11 11 10 10 10 10 10 10 10 10 10 10 9 8 8 8 7 7 6 7 7
12 12 12 13 13 13 13 13 13 12 12 12 12 13 14 16 17 19 21 22 22 22 20 19 17 15 14 13 12 11 10 10 9 9 9 9 10 10 10 9 9 8 8 7 7 7 6 6 7
12 13 13 14 14 14 14 14 14 12 11 11 11 12 15 17 19 21 23 24 24 23 22 20 18 17 16 15 13 11 10 10 10 9 10 10 10 9 9 8 8 8 7 7 7 6 7 7 7
12 13 14 15 15 16 15 15 15 14 13 12 12 13 14 16 18 21 23 25 25 25 24 22 20 19 17 15 13 11 10 10 9 9 9 9 9 8 7 7 7 7 7 7 7 7 7 7 7
12 13 15 15 16 17 17 16 16 15 14 13 13 13 14 16 18 20 23 25 26 26 25 24 22 20 18 15 12 11 9 9 8 8 8 8 7 6 6 6 6 6 6 6 6 6 6 6 7
12 14 15 16 17 18 18 18 18 17 16 14 13 12 13 14 17 21 23 25 27 27 26 24 23 21 18 15 13 11 9 8 7 7 7 6 5 5 5 5 5 5 5 5 6 6 6 6 6
13 15 16 17 18 17 18 19 20 18 16 14 11 11 12 13 16 20 23 25 27 28 27 24 23 21 19 16 14 11 9 8 6 6 5 4 4 4 3 3 3 4 4 5 5 5 4 5 5
13 14 15 18 18 17 17 18 20 18 16 13 11 9 10 12 14 18 21 22 25 27 26 24 23 20 17 16 14 11 9 7 6 5 4 3 3 2 2 2 2 2 2 3 3 3 3 4 4
11 13 16 18 18 18 17 18 19 18 15 13 10 7 7 8 11 15 17 20 23 24 24 23 22 19 16 14 12 10 8 7 6 4 3 2 2 1 1 1 1 1 2 2 2 2 3 3 4
13 15 17 17 17 17 16 17 17 17 15 13 10 8 5 5 7 10 13 15 20 20 21 22 21 19 16 13 11 9 8 7 6 5 4 3 2 1 1 0 1 1 2 2 2 2 3 3 3
13 15 16 17 16 15 15 15 16 15 14 13 10 8 6 4 3 7 11 14 17 19 19 19 18 17 15 13 10 9 9 8 6 5 4 3 2 1 1 1 1 1 2 2 2 3 3 3 3
13 15 16 16 16 14 14 14 14 14 14 12 11 8 7 4 1 3 8 11 14 16 17 17 16 16 14 12 10 10 9 8 6 5 4 3 3 2 1 1 1 1 2 2 3 3 3 3 3
13 15 15 15 14 13 13 13 13 12 12 11 9 8 7 4 1 1 5 9 13 15 15 15 15 15 14 12 11 10 9 8 7 6 5 4 3 2 2 1 1 1 1 2 3 3 4 4 4
14 16 14 13 12 12 12 11 12 10 11 10 9 7 7 5 3 2 4 8 11 12 13 14 14 13 12 12 10 10 9 8 7 6 5 4 4 3 3 2 2 1 1 2 3 4 4 5 5
16 16 14 12 11 11 12 10 10 9 9 9 8 6 6 5 3 3 3 6 10 12 13 13 13 12 12 11 10 10 9 8 7 6 6 5 5 4 4 4 4 3 3 4 4 5 6 7 7
16 14 12 10 10 11 12 10 9 9 7 7 7 6 5 4 4 3 4 6 8 10 12 12 12 12 11 10 10 9 8 8 7 7 6 6 6 6 6 6 6 6 6 7 7 8 8 9 10
15 12 10 9 8 10 12 9 10 9 8 6 5 5 4 4 4 2 3 4 7 8 10 11 11 11 10 10 9 9 8 7 7 7 7 7 7 8 8 8 9 9 9 10 10 11 11 12 12
13 11 11 10 10 9 9 10 10 10 9 6 5 4 3 3 3 2 1 2 4 6 8 9 10 10 10 10 9 9 8 8 8 8 8 8 9 9 10 10 11 12 12 13 13 14 15 15 15
13 13 11 8 9 8 9 9 9 9 8 7 6 5 4 3 2 1 1 3 4 6 7 8 9 10 10 10 10 10 10 10 10 10 10 11 11 12 13 13 14 15 15 16 16 17 17 18 18
14 13 11 10 10 8 8 9 11 9 9 8 7 7 6 6 5 4 4 4 5 7 8 9 10 10 11 11 12 12 12 13 13 13 14 14 15 16 16 17 17 18 18 19 20 20 21 21 21
13 12 11 10 11 10 8 10 11 10 10 10 9 9 8 8 8 7 7 7 7 8 9 10 11 12 13 13 14 15 15 16 16 17 17 18 19 20 20 21 21 21 22 22 23 23 23 23 23
Wind_Direction
316 313 312 312 313 313 309 309 309 307 303 301 297 282 267 248 241 227 214 209 205 199 198 195 201 206 209 212 214 212 206 197 188 181 176 172 167 158 10 344 346 351 357 5 14 19 23 31 37
315 313 311 311 313 309 307 309 308 305 303 299 296 289 269 250 241 230 216 213 207 198 197 199 205 208 209 212 214 212 211 208 206 206 205 207 217 232 258 285 300 312 323 329 338 353 5 12 26
316 313 309 308 306 299 300 306 305 304 302 299 293 284 270 252 242 229 221 217 213 202 202 202 209 214 214 213 216 217 220 216 216 221 224 226 235 245 258 276 288 297 305 310 312 317 328 331 329
318 316 312 308 303 300 300 303 304 303 301 297 290 278 267 245 237 229 226 222 214 206 206 209 215 216 213 214 219 222 225 225 227 233 239 244 250 257 264 276 282 288 292 297 300 300 298 293 280
320 317 313 307 301 302 301 301 301 301 299 294 284 274 261 239 229 228 225 224 216 213 213 217 219 216 213 213 218 223 227 233 238 244 253 261 266 268 272 277 282 284 286 290 290 288 284 277 267
323 321 315 306 305 306 303 302 301 298 295 291 280 272 255 236 228 226 224 223 220 217 216 218 220 218 215 218 222 227 232 240 248 254 263 272 276 275 277 282 286 287 286 287 285 280 278 275 268
330 327 319 313 311 309 306 303 300 295 292 287 275 261 247 238 228 224 222 220 219 218 216 218 220 221 222 225 228 233 240 248 256 264 272 278 280 280 282 285 287 287 285 288 289 279 270 274 269
340 335 330 326 319 314 311 306 301 296 290 283 271 255 241 234 226 224 223 222 219 218 219 221 222 224 225 228 233 240 247 255 262 270 276 280 280 280 283 286 287 285 285 286 288 283 271 269 268
350 349 341 333 327 320 317 313 307 298 289 281 268 253 241 232 227 224 222 221 219 219 221 222 227 227 228 231 237 244 251 260 266 272 275 277 278 280 284 286 284 285 286 286 290 283 274 271 271
357 357 345 337 331 326 323 319 314 305 294 281 267 256 239 230 225 223 220 217 218 220 222 226 228 229 231 235 239 245 254 262 268 272 274 275 277 281 282 282 285 286 288 288 290 283 273 276 273
358 355 347 341 337 335 331 326 323 313 297 284 269 252 237 229 226 225 220 218 219 220 222 226 230 231 234 237 241 246 252 259 266 273 273 275 276 276 278 280 281 281 283 285 287 286 281 278 272
356 353 346 341 338 335 333 328 324 318 306 291 271 253 240 232 232 228 222 220 219 221 223 226 230 233 235 237 240 245 251 257 265 271 271 273 274 273 274 277 279 278 278 280 281 285 279 276 272
356 350 346 343 339 336 331 326 324 319 310 296 278 263 247 238 232 227 223 217 219 219 222 227 230 233 234 236 239 245 250 256 265 269 271 272 272 271 272 274 279 278 277 277 279 281 278 275 272
352 347 344 341 338 336 333 329 326 322 312 300 287 272 257 243 234 223 217 216 218 219 221 226 228 230 233 236 238 244 248 253 259 264 267 267 267 266 269 273 276 278 277 276 276 280 280 276 270
348 344 342 339 336 337 337 334 330 325 316 304 292 276 261 248 236 223 219 217 219 220 221 225 226 228 230 231 234 238 242 247 253 256 259 260 261 264 269 273 273 276 277 279 282 284 280 278 276
344 346 341 334 334 337 340 339 336 332 324 317 300 278 266 250 236 223 220 219 219 220 223 225 226 226 225 225 226 230 233 238 239 245 251 253 256 264 267 273 275 275 278 282 286 287 283 281 282
342 340 334 331 333 337 339 339 340 339 335 326 313 288 273 254 237 222 219 217 217 219 221 223 226 223 218 218 220 224 224 224 224 229 227 229 243 247 260 274 275 282 288 295 299 297 290 286 286
328 334 334 331 333 335 337 341 345 344 343 338 330 309 288 258 235 221 216 212 212 215 217 218 219 215 212 212 216 218 214 209 209 206 198 199 197 206 252 284 316 335 337 338 337 330 317 302 294
333 335 334 331 334 336 336 341 345 348 351 353 349 342 322 283 237 221 214 214 212 213 212 212 209 207 205 204 206 205 198 194 192 188 183 181 176 165 138 74 25 9 11 8 1 355 345 331 319
334 336 336 333 336 338 341 343 346 352 356 1 0 1 353 330 247 222 220 217 212 205 204 201 197 196 197 199 198 195 186 182 183 183 184 186 183 170 138 83 47 36 29 19 11 7 1 352 340
329 332 333 334 335 338 343 346 349 355 359 6 9 10 7 355 297 209 201 200 197 194 192 193 192 191 189 190 192 190 185 182 182 182 183 187 184 177 157 130 88 64 44 34 25 21 15 3 349
321 326 330 333 338 338 343 350 348 355 2 8 13 16 17 15 20 168 193 190 188 187 189 188 184 184 184 186 189 190 187 185 186 184 185 188 184 174 168 172 166 132 37 10 7 1 356 353 348
316 320 325 330 334 336 338 348 344 352 2 7 12 18 24 30 54 95 160 174 176 178 179 179 178 181 183 184 189 190 189 190 187 186 187 191 193 198 207 210 216 239 290 322 331 337 338 336 332
315 319 323 330 336 333 329 340 341 344 356 4 7 14 22 32 59 78 129 159 168 175 178 180 180 182 183 187 190 193 194 191 191 194 197 205 213 222 230 233 245 261 276 290 303 309 312 314 311
311 321 329 329 328 314 316 322 323 331 340 353 6 14 20 29 46 74 110 148 164 174 179 182 184 184 189 194 195 198 198 199 204 206 211 220 229 238 243 248 257 267 275 282 289 295 298 300 301
303 311 307 297 299 308 311 310 307 316 325 337 352 7 19 22 34 70 116 151 167 174 182 183 185 192 197 200 202 203 206 210 216 221 226 233 239 245 250 256 262 268 275 280 283 287 291 294 296
295 298 296 297 301 313 304 301 304 303 311 317 330 347 353 359 13 33 95 141 165 177 183 190 197 204 207 208 210 214 220 224 229 233 237 242 247 252 255 260 265 270 275 278 280 285 287 290 292
285 293 294 296 294 299 304 302 289 294 303 304 302 306 317 309 300 301 250 217 210 205 205 208 211 215 217 220 223 226 230 235 239 243 246 250 255 258 260 264 269 274 277 279 280 283 285 287 288
279 284 286 287 284 286 287 284 277 279 287 294 295 292 291 291 286 274 259 246 237 230 226 225 224 226 229 231 233 236 239 242 247 250 253 256 260 263 266 268 272 275 277 279 281 283 284 285 286
276 278 280 288 290 287 277 277 273 271 276 283 285 284 282 280 277 274 271 262 254 246 240 238 238 239 239 240 242 244 246 249 252 255 258 261 264 267 270 272 274 277 279 280 282 283 284 284 285
Height
5915 5914 5914 5914 5914 5914 5912 5911 5910 5909 5908 5907 5906 5905 5905 5905 5905 5907 5906 5905 5905 5906 5907 5908 5909 5909 5910 5911 5911 5911 5911 5911 5911 5911 5911 5911 5911 5912 5912 5912 5912 5911 5911 5910 5910 5909 5909 5908 5908
5913 5913 5912 5912 5912 5912 5910 5908 5908 5907 5906 5905 5904 5904 5903 5902 5902 5903 5902 5903 5904 5904 5905 5906 5907 5908 5909 5910 5911 5911 5911 5911 5911 5911 5911 5911 5911 5911 5911 5911 5911 5911 5910 5910 5909 5909 5908 5908 5908
5911 5910 5911 5910 5910 5909 5908 5906 5905 5904 5903 5903 5902 5901 5901 5900 5900 5900 5901 5901 5902 5903 5904 5905 5906 5907 5908 5909 5910 5910 5910 5910 5911 5911 5911 5911 5911 5911 5911 5910 5910 5910 5910 5909 5909 5908 5908 5907 5907
5909 5909 5908 5908 5907 5905 5904 5903 5902 5901 5901 5900 5899 5899 5898 5898 5898 5898 5898 5899 5900 5901 5902 5903 5904 5906 5906 5907 5908 5909 5909 5910 5910 5910 5910 5910 5910 5910 5910 5909 5909 5909 5909 5908 5908 5907 5907 5907 5906
5906 5906 5906 5904 5903 5902 5901 5900 5899 5898 5897 5897 5896 5895 5895 5895 5895 5896 5896 5897 5898 5899 5900 5902 5903 5904 5905 5906 5907 5908 5908 5908 5909 5909 5909 5908 5908 5908 5908 5908 5908 5908 5907 5907 5906 5906 5906 5906 5905
5905 5904 5904 5902 5899 5898 5897 5896 5895 5894 5894 5893 5893 5892 5892 5892 5893 5893 5894 5895 5896 5897 5899 5900 5901 5903 5904 5905 5905 5906 5906 5907 5907 5907 5907 5907 5907 5906 5906 5906 5906 5906 5905 5905 5905 5904 5904 5904 5904
5903 5902 5901 5899 5897 5895 5894 5892 5892 5891 5890 5890 5889 5889 5889 5889 5890 5891 5892 5893 5894 5895 5897 5898 5900 5901 5902 5903 5904 5904 5905 5905 5905 5905 5905 5905 5904 5904 5903 5903 5903 5903 5903 5903 5902 5902 5902 5902 5902
5901 5900 5898 5896 5895 5893 5891 5889 5888 5887 5887 5886 5886 5886 5886 5886 5887 5888 5889 5890 5892 5893 5895 5896 5898 5899 5900 5901 5902 5902 5903 5903 5903 5903 5903 5902 5902 5901 5901 5900 5900 5900 5900 5900 5900 5899 5899 5899 5900
5899 5899 5896 5895 5893 5890 5888 5886 5885 5884 5883 5882 5882 5882 5882 5882 5883 5885 5886 5888 5889 5891 5893 5894 5896 5897 5898 5899 5899 5900 5900 5901 5900 5900 5900 5900 5899 5898 5898 5898 5897 5897 5897 5897 5897 5897 5897 5897 5897
5898 5897 5895 5893 5890 5888 5886 5884 5882 5880 5879 5879 5878 5878 5878 5879 5880 5882 5883 5885 5886 5888 5890 5892 5893 5895 5896 5897 5897 5898 5898 5898 5898 5898 5897 5897 5897 5896 5895 5895 5895 5895 5894 5894 5894 5894 5894 5894 5894
5896 5895 5893 5891 5888 5886 5884 5881 5879 5877 5876 5875 5874 5874 5874 5875 5876 5877 5879 5881 5883 5885 5887 5889 5891 5893 5894 5894 5895 5895 5896 5896 5896 5895 5895 5895 5894 5894 5893 5893 5892 5892 5892 5892 5892 5892 5892 5892 5892
5895 5894 5891 5889 5887 5884 5882 5879 5877 5875 5874 5872 5871 5870 5870 5871 5872 5873 5874 5877 5879 5882 5884 5886 5888 5890 5891 5892 5893 5893 5893 5893 5894 5893 5893 5892 5892 5891 5891 5890 5890 5890 5890 5890 5890 5890 5890 5890 5890
5895 5893 5890 5888 5885 5882 5880 5877 5875 5872 5870 5868 5867 5866 5866 5866 5866 5867 5869 5873 5875 5878 5881 5883 5885 5887 5888 5889 5890 5890 5891 5891 5891 5891 5890 5890 5890 5889 5888 5888 5888 5888 5888 5888 5888 5888 5888 5888 5888
5894 5891 5889 5886 5884 5881 5878 5875 5872 5870 5867 5865 5863 5862 5861 5861 5861 5862 5865 5868 5871 5874 5877 5879 5882 5883 5885 5886 5887 5888 5888 5889 5889 5889 5888 5888 5888 5887 5887 5886 5886 5886 5886 5886 5886 5886 5886 5886 5886
5892 5891 5888 5885 5882 5879 5877 5873 5870 5866 5863 5860 5858 5857 5857 5856 5857 5858 5861 5864 5867 5870 5873 5875 5877 5880 5882 5883 5885 5886 5886 5887 5887 5887 5886 5886 5886 5885 5885 5885 5885 5885 5885 5885 5885 5884 5884 5884 5884
5892 5890 5889 5885 5881 5878 5877 5873 5868 5863 5860 5856 5854 5853 5852 5852 5852 5853 5856 5859 5862 5865 5868 5871 5873 5876 5878 5880 5882 5883 5884 5884 5884 5885 5884 5884 5884 5884 5884 5883 5883 5883 5883 5883 5883 5883 5883 5883 5883
5892 5891 5888 5884 5880 5877 5874 5870 5866 5861 5857 5854 5851 5849 5849 5848 5848 5850 5852 5854 5857 5861 5864 5867 5870 5873 5875 5878 5879 5881 5882 5882 5883 5883 5883 5883 5883 5883 5883 5882 5882 5882 5882 5882 5882 5881 5881 5881 5881
5892 5889 5886 5883 5879 5875 5872 5869 5865 5860 5856 5852 5849 5847 5846 5845 5846 5847 5849 5851 5854 5857 5861 5864 5867 5870 5873 5875 5877 5879 5880 5881 5881 5882 5882 5882 5882 5882 5882 5882 5881 5881 5881 5881 5881 5880 5880 5880 5880
5889 5887 5884 5881 5877 5874 5871 5868 5864 5859 5855 5852 5849 5847 5845 5844 5844 5845 5847 5849 5852 5855 5857 5861 5865 5868 5871 5873 5875 5877 5878 5879 5880 5881 5881 5881 5881 5881 5881 5881 5881 5881 5880 5880 5880 5880 5879 5879 5879
5888 5885 5883 5879 5875 5873 5870 5867 5863 5859 5856 5852 5849 5847 5845 5844 5843 5844 5845 5846 5849 5852 5855 5859 5863 5866 5869 5872 5874 5876 5877 5878 5880 5880 5880 5880 5881 5881 5881 5881 5881 5881 5880 5880 5880 5879 5879 5878 5878
5886 5884 5881 5878 5874 5871 5869 5867 5863 5860 5856 5853 5850 5848 5846 5844 5844 5843 5844 5846 5848 5851 5853 5857 5861 5864 5868 5871 5873 5875 5877 5878 5879 5879 5879 5880 5880 5880 5880 5880 5880 5880 5880 5880 5879 5879 5878 5878 5877
5885 5882 5879 5876 5873 5872 5870 5867 5863 5860 5858 5855 5852 5849 5847 5846 5845 5844 5845 5846 5848 5851 5854 5857 5860 5864 5867 5870 5872 5874 5876 5877 5878 5878 5879 5879 5879 5880 5880 5880 5880 5880 5880 5879 5879 5878 5878 5877 5877
5882 5880 5877 5874 5872 5871 5869 5867 5865 5861 5858 5856 5853 5851 5849 5848 5847 5846 5845 5846 5848 5851 5854 5857 5860 5864 5867 5869 5872 5874 5875 5876 5877 5877 5878 5878 5879 5879 5879 5879 5880 5879 5879 5879 5878 5878 5877 5876 5876
5880 5878 5875 5873 5872 5872 5868 5867 5865 5861 5859 5857 5855 5852 5851 5850 5849 5848 5847 5847 5849 5851 5854 5857 5861 5863 5866 5869 5871 5872 5874 5875 5875 5876 5877 5877 5878 5878 5878 5879 5879 5878 5878 5878 5877 5877 5876 5875 5874
5877 5876 5876 5875 5874 5872 5867 5865 5864 5861 5859 5857 5855 5854 5852 5851 5851 5850 5850 5850 5851 5853 5855 5858 5861 5864 5866 5868 5870 5871 5872 5873 5874 5875 5876 5876 5877 5877 5877 5877 5877 5877 5876 5876 5875 5875 5874 5873 5872
5875 5874 5874 5873 5873 5870 5866 5864 5862 5859 5858 5857 5856 5854 5854 5853 5852 5852 5852 5852 5852 5854 5856 5858 5861 5863 5865 5867 5868 5870 5871 5872 5873 5873 5874 5874 5875 5875 5876 5875 5875 5875 5874 5874 5873 5872 5871 5870 5869
5872 5871 5870 5869 5868 5867 5866 5862 5860 5858 5857 5856 5856 5855 5854 5854 5854 5853 5853 5854 5855 5856 5857 5859 5861 5863 5864 5865 5867 5868 5869 5870 5871 5871 5872 5872 5873 5873 5873 5873 5873 5872 5872 5871 5870 5869 5868 5867 5866
5869 5867 5866 5866 5866 5866 5864 5862 5860 5857 5856 5855 5855 5855 5854 5854 5854 5854 5854 5855 5856 5857 5858 5859 5860 5862 5863 5864 5865 5866 5867 5868 5868 5869 5869 5870 5870 5870 5870 5870 5869 5869 5868 5867 5866 5865 5864 5863 5861
5865 5864 5863 5863 5862 5862 5862 5863 5857 5855 5854 5854 5853 5853 5853 5854 5854 5854 5854 5854 5855 5856 5857 5858 5859 5860 5861 5862 5862 5863 5864 5865 5865 5866 5866 5866 5866 5866 5866 5865 5865 5864 5863 5862 5861 5860 5859 5857 5856
5860 5860 5860 5860 5859 5858 5858 5861 5854 5853 5852 5852 5851 5851 5851 5852 5852 5852 5853 5853 5853 5854 5855 5855 5856 5857 5858 5859 5859 5860 5860 5861 5861 5862 5862 5862 5862 5861 5861 5860 5859 5859 5858 5857 5855 5854 5852 5851 5850